Location: Oshawa
(43.9000°N, 78.8670°W)
Time: 15:04:03
(UTC-05:00)

Cosmos 1821 Rocket - Visible Passes

Search period start: 06 March 2015 00:00
Search period end: 16 March 2015 01:00
Orbit: 945 x 1006 km, 82.9° (Epoch: 06 March)

Date Brightness Start Highest point End Pass type
(mag) Time Alt. Az. Time Alt. Az. Time Alt. Az.
06 Mar 5.7 19:00:13 10° NE 19:01:58 11° ENE 19:03:18 11° ENE visible
06 Mar 3.9 20:42:35 10° N 20:48:00 66° NNE 20:48:00 66° NNE visible
06 Mar 6.2 22:29:36 10° NW 22:32:41 17° WNW 22:32:41 17° WNW visible
07 Mar 5.1 19:23:39 10° NNE 19:28:01 21° ENE 19:29:09 20° E visible
07 Mar 4.2 21:08:01 10° NNW 21:13:51 64° W 21:13:51 64° W visible
08 Mar 4.5 20:48:18 10° N 20:53:50 36° ENE 20:55:05 33° E visible
08 Mar 5.2 22:33:45 10° NNW 22:39:15 36° W 22:39:48 35° W visible
09 Mar 3.9 21:13:22 10° N 21:19:26 63° E 21:21:06 46° SE visible
09 Mar 6.0 22:59:58 10° NW 23:04:20 20° W 23:05:50 18° WSW visible
10 Mar 5.3 19:54:44 10° NNE 19:58:38 18° ENE 20:02:31 11° ESE visible
10 Mar 4.0 21:38:44 10° NNW 21:44:49 75° W 21:47:14 39° S visible
10 Mar 6.7 23:28:13 10° WNW 23:29:17 10° WNW 23:29:54 10° W visible
11 Mar 4.7 20:19:12 10° N 20:24:30 31° ENE 20:28:46 15° SE visible
11 Mar 5.0 22:04:22 10° NNW 22:10:04 42° W 22:13:30 22° SW visible
12 Mar 4.0 20:44:11 10° N 20:50:09 54° ENE 20:55:13 15° SSE visible
12 Mar 5.9 22:30:26 10° NNW 22:35:11 23° W 22:39:46 10° SW visible
13 Mar 3.9 21:09:27 10° N 21:15:35 86° W 21:21:44 10° S visible
13 Mar 6.6 22:57:32 10° NW 23:00:10 13° W 23:02:25 10° WSW visible
14 Mar 4.9 19:50:07 10° NNE 19:55:09 27° ENE 20:00:18 10° SE visible
14 Mar 4.8 21:35:01 10° NNW 21:40:52 49° W 21:46:42 10° SSW visible
15 Mar 4.2 20:15:01 10° N 20:20:51 46° ENE 20:26:45 10° SSE visible
15 Mar 5.8 22:00:57 10° NNW 22:06:01 27° W 22:10:59 10° SW visible
